TimeCST,TemperatureF,Dew PointF,Humidity,Sea Level PressureIn,VisibilityMPH,Wind Direction,Wind SpeedMPH,Gust SpeedMPH,PrecipitationIn,Events,Conditions,WindDirDegrees,DateUTC
12:52 AM,16.0,12.0,84,30.09,-9999.0,NNW,10.4,-,N/A,,Unknown,330,2012-12-22 06:52:00
1:52 AM,16.0,12.0,84,30.11,-9999.0,North,8.1,-,N/A,,Unknown,350,2012-12-22 07:52:00
2:52 AM,14.0,10.0,84,30.12,-9999.0,North,9.2,-,N/A,,Unknown,350,2012-12-22 08:52:00
3:52 AM,12.0,7.0,80,30.15,-9999.0,NNW,12.7,-,N/A,,Unknown,340,2012-12-22 09:52:00
4:52 AM,8.1,3.9,83,30.17,-9999.0,North,6.9,-,N/A,,Unknown,350,2012-12-22 10:52:00
5:52 AM,6.1,1.9,83,30.21,-9999.0,NNW,13.8,-,N/A,,Unknown,340,2012-12-22 11:52:00
6:52 AM,6.1,1.9,83,30.22,-9999.0,North,15.0,-,N/A,,Unknown,350,2012-12-22 12:52:00
7:52 AM,3.9,1.0,88,30.23,-9999.0,NNW,5.8,-,N/A,,Unknown,340,2012-12-22 13:52:00
8:52 AM,3.9,-0.0,84,30.26,-9999.0,NW,8.1,-,N/A,,Unknown,310,2012-12-22 14:52:00
9:52 AM,6.1,1.0,80,30.27,-9999.0,NW,6.9,-,N/A,,Unknown,320,2012-12-22 15:52:00
10:52 AM,9.0,3.9,80,30.27,-9999.0,North,9.2,-,N/A,,Unknown,360,2012-12-22 16:52:00
11:52 AM,10.0,3.9,76,30.27,-9999.0,North,8.1,-,N/A,,Unknown,10,2012-12-22 17:52:00
12:52 PM,9.0,3.0,77,30.25,-9999.0,North,8.1,-,N/A,,Unknown,360,2012-12-22 18:52:00
1:52 PM,9.0,3.0,77,30.27,-9999.0,North,12.7,-,N/A,,Unknown,350,2012-12-22 19:52:00
2:52 PM,9.0,1.9,73,30.28,-9999.0,North,12.7,-,N/A,,Unknown,360,2012-12-22 20:52:00
3:52 PM,7.0,1.0,77,30.27,-9999.0,NNE,6.9,-,N/A,,Unknown,20,2012-12-22 21:52:00
4:52 PM,5.0,-0.0,80,30.28,-9999.0,NNE,5.8,-,N/A,,Unknown,30,2012-12-22 22:52:00
5:52 PM,1.0,-4.0,79,30.31,-9999.0,North,3.5,-,N/A,,Unknown,360,2012-12-22 23:52:00
6:52 PM,5.0,1.0,84,30.30,-9999.0,NE,4.6,-,N/A,,Unknown,40,2012-12-23 00:52:00
7:52 PM,3.9,1.0,88,30.29,-9999.0,NE,3.5,-,N/A,,Unknown,40,2012-12-23 01:52:00
8:52 PM,3.0,-0.9,84,30.29,-9999.0,NNE,3.5,-,N/A,,Unknown,30,2012-12-23 02:52:00
9:52 PM,1.9,-0.9,88,30.30,-9999.0,NNE,5.8,-,N/A,,Unknown,30,2012-12-23 03:52:00
10:52 PM,1.9,-0.9,88,30.29,-9999.0,NE,6.9,-,N/A,,Unknown,40,2012-12-23 04:52:00
11:52 PM,3.0,-0.0,87,30.27,-9999.0,ENE,5.8,-,N/A,,Unknown,70,2012-12-23 05:52:00